Flag Weather past 2 weeks in Moncton, New Brunswick, Canada

Now
34 °F

Passing clouds.


Feels Like: 29 °F
Forecast: 29 / 55 °F
Wind: 6 mph from Southwest

Location: Moncton

Current Time: Nov 23, 2014 at 8:31:15 PM

Latest Report: Nov 23, 2014 at 7:00 PM


Visibility: 15 mi

Pressure: 30.13 "Hg

Humidity: 75%

Dew point: 27 °F

Location of MonctonLocation

Historic Weather in Moncton — Graph

°F

Moncton temperature yesterday

Maximum temperature yesterday: 36 °F (at 9:00 PM)
Minimum temperature yesterday: 14 °F (at 5:00 AM)
Average temperature yesterday: 23 °F

Past Weeks' High & Low Weather Summary

 TemperatureHumidityPressure
High52 °F (Nov 12, 1:00 PM)100% (Nov 11, 11:00 PM)30.31 "Hg (Nov 11, 11:00 PM)
Low14 °F (Nov 22, 5:00 AM)39% (Nov 13, 3:00 PM)29.21 "Hg (Nov 18, 7:00 AM)
Average33 °F77%29.92 "Hg
* Reported Nov 8 7:00 PM — Nov 23 7:00 PM, Moncton, Weather by CustomWeather, © 2014

Note: Actual official high and low records may vary slightly from our data, if they occured in-between our weather recording intervals... More about our weather records

Advertising

Moncton weather history for previous 24 hours

 ConditionsComfort  
Time TempWeatherWind HumidityBarometerVisibility
7:00 PM
Nov 23
34 °FPassing clouds.6 mph75%30.13 "Hg15 mi
6:54 PM36 °FPassing clouds.7 mph70%30.13 "Hg15 mi
6:00 PM37 °FPassing clouds.5 mph65%30.11 "Hg15 mi
5:00 PM39 °FPassing clouds.7 mph61%30.08 "Hg15 mi
4:00 PM39 °FScattered clouds.6 mph61%30.05 "Hg15 mi
3:00 PM43 °FBroken clouds.13 mph53%30.03 "Hg15 mi
2:00 PM43 °FBroken clouds.15 mph49%30.00 "Hg15 mi
1:00 PM43 °FScattered clouds.12 mph57%29.99 "Hg15 mi
12:00 PM43 °FScattered clouds.12 mph61%29.98 "Hg15 mi
11:00 AM39 °FBroken clouds.12 mph65%29.98 "Hg15 mi
10:00 AM36 °FPassing clouds.13 mph70%29.97 "Hg15 mi
9:00 AM32 °FScattered clouds.10 mph80%29.94 "Hg15 mi
8:00 AM30 °FPartly sunny.8 mph86%29.91 "Hg15 mi
7:00 AM32 °FMostly cloudy.12 mph80%29.88 "Hg15 mi
6:00 AM32 °FOvercast.12 mph80%29.84 "Hg15 mi
5:00 AM32 °FMostly cloudy.14 mph87%29.83 "Hg15 mi
4:00 AM30 °FMostly cloudy.12 mph93%29.83 "Hg15 mi
3:00 AM30 °FMostly cloudy.15 mph93%29.82 "Hg15 mi
2:00 AM30 °FSnow flurries. Mostly cloudy.10 mph93%29.82 "Hg4 mi
1:00 AM30 °FSnow flurries. Ice fog.16 mph86%29.82 "Hg2 mi
12:00 AM34 °FSnow flurries. Overcast.13 mph75%29.83 "Hg15 mi
11:00 PM
Nov 22
34 °FSnow flurries. Overcast.21 mph70%29.83 "Hg15 mi
10:51 PM34 °FSnow flurries. Overcast.25 mph70%29.83 "Hg15 mi
10:00 PM36 °FOvercast.17 mph60%29.82 "Hg15 mi
9:00 PM36 °FOvercast.18 mph60%29.82 "Hg15 mi
8:00 PM30 °FMostly cloudy.6 mph69%29.83 "Hg15 mi
Weather by CustomWeather, © 2014

See weather overviewHow to use our weather pages